伽利略0202星导航星座 (GSAT0202 (GALILEO 6))

导读 | 豆包AI

GALILEO 6(编号262)是欧洲空间局(ESA)于2014年8月22日发射的伽利略全球卫星导航系统卫星。作为欧盟自主建设的导航星座组成部分,它承担着全球定位、导航与授时服务任务,为民用用户提供高精度定位服务,提升了伽利略系统的全球覆盖能力与服务稳定性,推动欧洲摆脱对其他导航系统的依赖,促进全球卫星导航领域多元化发展。

基本信息
目录编号:
40129
目录名称:
GALILEO 6 (262)
国际标识:
2014-050B
轨道中心:
EARTH
卫星名称:
伽利略0202星
卫星全名:
伽利略0202星导航星座 (GSAT0202 (GALILEO 6))
卫星状态:
在轨 (已飞行4222 天)
发射日期:
2014-08-22 UTC
国别 :
(ESA)
星等 :
--
轨道信息
数据来源 国际轨道数据
星历时间: 2026-03-11T21:51:31+0800
2天前
查看轨道信息
半长轴: 27977.363km
偏心率: 0.1659655
轨道倾角: 48.997°
近地点辐角 176.342°
升交点赤经 276.515°
平近点角 185.056°
近地点: 16955.948km
远地点: 26242.504km
周期: 776.193分钟
每日圈数: 1.855208
详细信息
平衡模式:
三轴稳定
覆盖范围:
全球
运营商:
欧盟空间计划局
运营商所在国:
法国大都会
使用方式:
暂无
卫星简介
伽利略定位系统(Galileo)是一个全球导航卫星系统,于2016年投入使用由欧盟通过ESA创建,由欧盟空间计划局(EUSPA)运营。该系统有两个地面操控站,并且在高纬度地区提供比其他系统更好的定位服务。该卫星仍在工作。
2D轨道图
3D轨道图
轨道高度分析图
轨道倾角分析图
轨道综合分析图
查看轨道综合分析图